SCP
0 0 0 0 0 0 0 0 0 0 0 0 1 1 1 1 1 1 1 1 1 1 1 1 1 1 1 1 1 1 1 1 1 1 1 1 1 1 1 1 1 1 1 1
0 0 0 0 0 0 0 0 0 0 0 1 1 1 1 1 1 1 1 1 1 1 1 1 1 1 1 1 1 1 1 1 1 1 1 1 1 1 1 1 1 1 1 0
0 0 0 0 0 0 0 0 0 0 1 1 1 1 1 1 1 1 1 1 1 1 1 1 1 1 1 1 1 1 1 1 1 1 1 1 1 1 1 1 1 1 0 0
0 0 0 0 0 0 0 0 0 1 1 1 1 1 1 1 1 1 1 1 1 1 1 1 1 1 1 1 1 1 1 1 1 1 1 1 1 0 0 0 1 0 0 0
0 0 0 0 0 0 0 0 0 1 1 1 1 1 1 1 1 1 1 1 1 1 1 1 1 1 1 1 1 1 1 1 1 1 1 1 0 0 0 0 0 0 0 0
0 0 0 0 0 0 0 0 1 1 1 1 1 1 1 1 1 1 1 1 1 1 1 1 1 1 1 1 1 1 1 1 1 1 0 0 0 1 1 1 0 0 0 0
0 0 0 0 0 0 1 1 1 1 1 1 1 1 1 1 1 1 1 1 1 1 1 1 1 1 1 1 1 1 1 1 1 1 0 0 1 1 1 0 0 0 0 0
0 0 1 1 1 1 1 1 1 1 1 1 1 1 1 1 1 1 1 1 1 1 1 0 0 1 1 1 1 1 1 1 1 0 0 0 0 0 0 0 0 0 0 0
1 1 1 1 1 1 1 1 2 2 1 1 1 1 1 1 1 1 0 0 0 0 0 0 0 0 0 0 0 0 0 0 0 0 0 0 0 0 0 0 0 0 0 0
1 1 1 1 1 1 1 1 1 1 1 1 1 1 1 1 1 0 0 0 0 0 0 0 0 0 0 0 0 0 0 0 0 0 0 0 0 0 0 0 0 0 0 0
1 1 1 1 1 1 1 1 1 1 1 1 1 1 1 0 0 0 0 0 0 0 0 0 0 0 0 0 0 0 0 0 0 0 0 0 0 0 0 0 0 0 0 0
1 1 1 1 1 1 1 1 1 1 1 1 1 1 0 0 0 0 0 0 0 0 0 0 0 0 0 0 0 0 0 0 0 0 0 0 0 0 0 0 0 0 0 0
1 1 1 1 1 1 1 1 1 1 1 1 1 1 1 0 0 0 0 0 0 0 0 0 0 0 0 0 0 0 0 0 0 0 0 0 0 0 0 0 0 0 0 0
1 1 1 1 1 1 1 1 1 1 1 1 1 1 1 0 0 0 0 0 0 0 0 0 0 0 0 0 0 0 0 0 0 0 0 0 0 0 0 0 0 0 0 0
0 0 1 1 1 0 0 0 0 0 0 0 0 1 0 0 0 0 0 0 0 0 0 0 0 0 0 0 0 0 0 0 0 0 0 0 0 0 0 0 0 0 0 0
0 0 0 0 0 0 0 0 0 0 0 0 0 0 0 0 0 0 0 0 0 0 0 0 0 0 0 0 0 0 0 0 0 0 0 0 0 0 0 0 0 0 0 0
0 0 0 0 0 0 0 0 0 0 0 0 0 0 0 0 0 0 0 0 0 0 0 0 0 0 0 0 0 0 0 0 0 0 0 0 0 0 0 0 0 0 0 0
0 0 0 0 0 0 0 0 0 0 0 0 0 0 0 0 0 0 0 0 0 0 0 0 0 0 0 0 0 0 0 0 0 0 0 0 0 0 0 0 0 0 0 0
0 0 0 0 0 0 0 0 0 0 0 0 0 0 0 0 0 0 0 0 0 0 0 0 0 0 0 0 0 0 0 0 0 0 0 0 0 0 0 0 0 0 0 0
0 0 0 0 0 0 0 0 0 0 0 0 0 0 0 0 0 0 0 0 0 0 0 0 0 0 0 0 0 0 0 0 0 0 0 0 0 0 0 0 0 0 0 0
0 0 0 0 0 0 0 0 0 0 0 0 0 0 0 0 0 0 0 0 0 0 0 0 0 0 0 0 0 0 0 0 0 0 0 0 0 0 0 0 0 0 0 0
0 0 0 0 0 0 0 0 0 0 0 0 0 0 0 0 0 0 0 0 0 0 0 0 0 0 0 0 0 0 0 0 0 0 0 0 0 0 0 0 0 0 0 0
0 0 0 0 0 0 0 0 0 0 0 0 0 0 0 0 0 0 0 0 0 0 0 0 0 0 0 0 0 0 0 0 0 0 0 0 0 0 0 0 0 0 0 0
0 0 0 0 0 0 0 0 0 0 0 0 0 0 0 0 0 0 0 0 0 0 0 0 0 0 0 0 0 0 0 0 0 0 0 0 0 0 0 0 0 0 0 0
0 0 0 0 0 0 0 0 0 0 0 0 0 0 0 0 0 0 0 0 0 0 0 0 0 0 0 0 0 0 0 0 0 0 0 0 0 0 0 0 0 0 0 0
0 0 0 0 0 0 0 0 0 0 0 0 0 0 0 0 0 0 0 0 0 0 0 0 0 0 0 0 0 0 0 0 0 0 0 0 0 0 0 0 0 0 0 0
0 0 0 0 0 0 0 0 0 0 0 0 0 0 0 0 0 0 0 0 0 0 0 0 0 0 0 0 0 0 0 0 0 0 0 0 0 0 0 0 0 0 0 0
Wind_Speed
10 9 11 13 14 15 15 12 8 3 6 8 7 6 7 9 10 11 9 9 8 7 6 5 4 4 3 3 3 3 3 3 3 3 3 4 3 3 3 3 3 2 2 2
12 10 11 13 15 15 15 13 9 5 4 5 9 9 8 8 10 10 8 8 7 7 6 5 4 3 3 2 2 2 2 3 3 4 4 4 4 4 3 3 2 3 3 3
10 10 10 13 13 13 12 11 9 7 8 8 9 10 9 8 9 9 8 7 7 6 5 4 4 3 2 2 2 2 2 3 3 4 4 4 4 4 4 4 3 4 3 3
8 7 12 9 8 9 9 6 4 7 11 10 10 10 9 8 9 8 8 7 6 5 5 5 4 3 3 3 3 3 3 3 3 4 4 4 5 5 4 4 4 4 4 5
8 8 9 7 8 8 7 5 5 8 9 12 14 12 10 9 9 9 8 7 6 6 6 5 4 4 4 4 4 4 4 3 3 4 5 5 5 5 4 5 5 5 5 5
8 7 7 4 2 2 4 5 5 8 9 10 12 7 7 9 10 9 8 7 6 6 7 6 5 5 5 5 5 5 4 4 4 4 5 5 5 5 5 5 6 6 7 7
11 8 4 3 4 3 5 4 6 9 9 9 7 8 11 11 10 9 8 7 7 7 6 6 5 6 6 6 5 5 5 6 6 5 6 6 6 6 6 6 6 7 8 7
11 10 3 1 0 1 4 6 8 10 10 11 13 14 13 11 10 8 7 7 7 7 6 6 5 6 6 6 6 6 7 8 8 7 7 7 7 6 6 6 7 7 7 7
2 2 7 7 7 7 5 7 8 10 11 12 12 12 12 10 9 7 7 6 7 8 7 6 6 6 7 6 6 8 9 9 9 9 8 7 7 6 5 4 5 5 5 6
5 8 8 8 8 8 7 8 9 10 11 11 12 11 10 9 8 7 6 6 7 7 7 7 7 7 7 6 7 8 9 9 8 9 9 9 7 7 6 5 5 5 6 6
5 7 7 7 7 7 7 8 10 10 10 11 11 11 10 8 8 7 6 6 7 7 7 7 7 7 7 7 7 8 8 8 9 9 9 10 10 9 8 8 6 6 6 5
3 4 5 7 7 7 8 9 9 9 10 10 10 10 10 8 7 7 6 6 7 7 8 8 8 7 6 6 6 7 7 7 7 7 7 8 9 10 16 13 16 17 13 10
6 5 7 8 7 7 8 10 10 9 9 9 9 9 10 9 8 8 7 7 8 8 7 7 7 7 6 5 5 6 7 6 6 6 6 7 7 8 9 9 14 15 13 12
6 6 7 7 7 8 10 11 11 10 10 9 9 10 10 9 9 8 8 8 8 9 8 8 8 7 5 5 5 6 7 7 6 5 6 6 6 7 7 8 7 6 7 7
4 5 7 8 8 9 11 10 11 10 10 10 10 10 10 10 10 9 8 9 9 9 8 8 8 7 5 5 6 7 6 5 5 5 5 5 5 6 6 7 7 7 6 4
4 6 7 8 8 8 10 11 11 11 11 11 11 11 11 11 10 9 9 9 9 9 8 8 7 6 5 6 7 6 6 7 5 4 5 5 5 6 6 6 6 6 5 4
5 6 7 8 9 8 10 11 11 11 11 12 12 11 11 12 11 10 10 10 9 9 8 8 7 6 6 6 5 5 5 5 5 4 5 6 5 5 5 5 6 6 5 5
5 5 7 9 10 10 11 12 12 12 11 12 12 12 11 11 11 10 10 10 10 10 8 7 6 6 6 6 4 4 4 4 4 5 5 5 5 5 6 6 6 7 5 5
6 7 9 11 12 11 11 11 12 12 11 11 12 12 11 11 10 10 10 10 10 9 7 6 6 6 6 6 3 2 4 5 6 6 5 5 5 5 5 6 6 5 5 4
9 10 12 13 13 12 12 12 11 11 11 11 12 12 11 10 10 10 10 9 7 6 6 5 5 5 5 5 4 3 5 6 6 5 5 5 5 5 5 5 5 5 4 4
11 13 14 14 13 12 12 11 11 11 11 11 11 11 11 10 9 9 9 8 7 6 6 6 5 4 4 3 2 4 5 6 6 6 5 5 5 5 5 4 4 4 4 4
11 12 14 13 13 11 10 10 11 11 11 11 11 11 10 10 9 9 8 7 6 4 4 5 5 5 5 3 3 5 6 6 6 6 5 5 5 4 4 4 4 4 4 4
11 12 12 12 12 12 11 11 11 10 10 10 9 9 9 7 7 7 7 6 6 6 5 5 6 7 6 2 4 5 5 6 5 5 5 5 5 4 4 4 4 4 4 3
11 11 11 11 11 12 12 11 10 9 9 9 8 8 8 7 7 7 8 8 7 7 6 6 6 6 4 2 4 5 5 5 4 4 5 5 5 4 4 3 3 3 3 3
11 11 11 11 11 10 11 11 10 9 9 8 9 8 7 7 7 7 8 9 7 6 7 5 3 3 2 3 5 5 5 5 4 4 5 4 4 4 4 3 3 3 3 3
10 8 7 8 8 8 8 8 7 7 7 7 7 7 7 7 9 8 6 8 8 6 5 4 4 2 2 4 5 5 5 5 4 4 5 4 4 4 4 3 3 3 3 3
9 8 6 7 7 7 7 7 7 7 7 7 8 7 7 7 7 7 8 7 6 5 5 4 4 3 4 5 5 4 4 4 4 4 4 3 3 3 4 3 2 3 3 3
Wind_Direction
249 248 219 207 220 224 228 233 235 210 168 169 155 140 131 132 130 125 127 124 119 119 117 117 109 99 96 105 106 121 141 145 144 146 141 136 141 142 137 129 142 140 132 116
238 241 244 220 215 222 224 227 224 184 132 131 129 129 133 131 132 128 128 125 123 119 117 113 108 102 101 94 112 130 141 138 130 131 136 142 141 133 123 115 108 101 94 95
235 227 240 230 218 217 221 221 220 186 152 146 137 137 134 134 129 127 123 119 119 119 113 113 111 112 117 131 127 135 130 125 130 134 134 137 136 125 120 113 106 101 97 87
242 222 228 232 223 220 217 209 185 138 140 148 138 126 123 120 117 118 115 112 110 112 116 117 116 115 117 118 113 118 123 123 127 129 129 127 120 118 115 108 105 97 89 86
240 235 236 213 210 217 194 168 132 129 136 136 129 126 114 110 109 106 100 97 92 88 91 88 94 98 96 88 97 103 104 104 114 123 123 120 119 113 107 104 100 94 87 82
240 232 236 250 235 246 174 163 130 130 134 139 145 145 123 111 103 99 92 88 86 84 84 81 81 89 89 85 85 86 92 98 100 106 111 112 113 112 105 102 100 95 83 73
241 237 217 283 302 242 208 141 110 118 131 141 127 104 120 115 104 99 94 94 90 85 80 77 77 83 90 87 83 84 87 89 90 92 97 100 100 102 105 104 101 97 91 81
232 238 196 73 216 42 84 90 99 106 109 105 104 107 114 111 108 105 102 99 95 90 82 74 77 84 87 86 86 87 88 87 84 82 88 95 97 98 103 108 107 104 100 91
217 117 91 80 89 92 96 98 102 108 109 112 113 114 113 110 105 101 98 96 95 96 91 84 79 84 89 88 90 92 90 88 87 84 78 79 86 87 88 89 97 100 98 93
114 111 101 90 86 94 99 100 101 107 112 115 116 117 116 111 106 100 93 92 97 97 92 84 81 84 88 91 95 97 96 93 90 86 78 66 60 61 61 58 81 90 88 90
131 122 115 100 89 90 98 105 106 106 111 115 118 118 114 111 106 99 96 90 90 91 91 87 84 87 91 94 98 101 101 99 95 90 88 79 67 53 60 48 47 77 82 84
123 135 123 119 115 117 113 108 107 107 107 110 115 118 115 110 105 104 99 94 95 93 92 90 87 85 85 92 101 108 112 111 108 108 105 101 96 79 56 62 61 64 69 83
82 85 100 110 111 104 106 107 104 104 107 108 108 113 114 111 107 104 102 100 100 97 94 92 90 87 84 90 98 103 104 105 109 111 113 115 114 110 101 73 63 63 65 73
90 92 107 109 107 109 110 107 107 104 103 104 105 107 109 109 106 102 100 100 100 98 93 91 88 84 83 90 95 100 103 98 103 104 105 108 112 118 119 119 108 91 72 72
97 111 120 114 108 110 111 113 110 105 103 102 106 106 107 107 105 103 100 100 99 96 92 91 88 84 80 89 91 93 96 96 95 104 112 114 115 111 108 108 108 111 112 99
113 117 122 121 118 121 121 117 112 109 106 105 105 105 105 104 102 99 97 98 99 94 89 86 82 77 76 89 95 90 87 89 94 106 109 112 112 109 108 110 108 106 102 98
143 148 145 132 126 121 115 112 112 111 108 108 108 108 109 107 104 100 98 96 94 92 89 85 81 73 73 70 79 96 98 94 94 97 95 96 99 101 102 102 102 98 88 72
146 156 147 135 131 122 114 111 112 111 112 114 115 114 112 109 106 103 101 99 96 91 88 89 89 88 80 66 57 89 102 102 91 87 87 84 86 94 95 94 96 100 106 96
132 131 124 122 120 120 117 114 112 112 112 112 112 110 107 104 103 104 102 98 95 90 80 80 83 89 86 68 44 103 106 104 97 93 92 94 90 85 86 88 88 89 91 89
114 116 114 114 114 115 115 113 112 111 114 116 114 111 108 107 106 104 98 91 85 89 87 79 85 82 79 55 21 93 93 92 93 97 95 93 90 89 87 88 90 89 87 86
119 116 116 114 112 112 114 116 116 114 114 115 114 113 112 111 110 107 105 98 87 86 96 91 77 67 63 27 20 83 90 93 93 92 91 90 88 87 86 86 86 86 83 79
114 114 115 114 115 113 113 114 113 114 114 115 116 115 116 116 111 100 90 95 98 87 100 98 85 60 29 14 91 87 87 90 91 90 87 87 89 90 87 83 83 83 82 78
111 114 117 118 118 118 117 116 115 115 116 117 118 119 115 109 111 112 106 100 103 94 87 76 58 44 13 43 85 90 92 92 93 97 97 92 87 83 83 84 82 82 81 79
112 113 115 119 120 119 116 113 111 111 113 111 111 114 115 111 106 104 106 102 93 100 91 74 54 31 14 72 86 90 89 88 91 95 98 100 95 91 88 87 87 89 88 82
112 113 117 122 121 119 118 117 116 119 121 119 121 118 112 108 108 106 109 112 121 115 110 100 62 23 39 81 88 85 81 73 68 75 90 94 103 104 96 85 81 86 86 80
112 113 111 114 118 126 128 127 128 128 125 122 117 111 107 106 110 115 120 123 121 121 119 122 121 118 94 86 87 91 97 101 94 83 82 86 88 92 90 82 81 73 78 82
111 111 113 114 117 121 123 124 124 122 121 119 117 117 119 122 126 131 131 131 132 128 120 121 116 106 98 95 94 92 90 89 87 84 83 80 79 87 98 90 73 67 60 66